Meteo Giornale » Osservazioni meteo Italia » Milano-Malpensa

ore: 19:50 - Osservazioni Meteo Milano-Malpensa
Lat. 45° 37' N Lon. 8° 44' E Alt. 234 metri s.l.m.

sereno Europe/Rome

26 °C

Sereno

Temp. 24 Ore

21 °C

30 °C

Ovest/Nord-Ovest

16.7 Km/h

Dew point 16 °C

Umidità 54 %

Visibilità  10 Km

Il sole sorge alle ore 06:32

Il sole tramonta alle ore 20:23

Data e Ora Cielo e Fenomeni T °C DP °C Um. % Pres. hPa Vis. km Vento km/h
Oggi h: 19:50 sereno Sereno 26 16 54 1020 10 O/NO 16.7
Oggi h: 19:20 sereno Sereno 27 16 50 1020 10 O/SO 18.5
Oggi h: 18:50 poco_nuvoloso Poco Nuvoloso 28 17 51 1020 10 SO 20.3
Oggi h: 18:20 sereno Sereno 28 17 51 1020 10 O/SO 16.7
Oggi h: 17:50 poco_nuvoloso Poco Nuvoloso 29 17 48 1020 10 O 18.5
Oggi h: 17:20 sereno Sereno 29 16 45 1020 10 O 14.8
Oggi h: 16:50 sereno Sereno 30 16 42 1020 10 O/NO 11.1
Oggi h: 16:20 poco_nuvoloso Poco Nuvoloso 30 15 40 1021 10 N 7.4
Oggi h: 15:50 poco_nuvoloso Poco Nuvoloso 29 15 42 1021 10 NO 9.3
Oggi h: 15:20 sereno Sereno 29 16 45 1021 10 N 9.3
Oggi h: 14:50 poco_nuvoloso Poco Nuvoloso 29 15 42 1022 10 N 5.5
Oggi h: 14:20 poco_nuvoloso Poco Nuvoloso 29 15 42 1022 10 N 5.5
Oggi h: 13:50 poco_nuvoloso Poco Nuvoloso 28 16 48 1022 10 N 7.4
Oggi h: 13:20 poco_nuvoloso Poco Nuvoloso 27 15 47 1022 10 NO 13
Oggi h: 12:50 sereno Sereno 28 17 51 1023 10 N/NO 7.4
Oggi h: 12:20 sereno Sereno 26 17 57 1023 10 N 9.3
Oggi h: 11:50 sereno Sereno 25 18 65 1023 10 N/NO 9.3
Oggi h: 11:20 sereno Sereno 24 19 73 1023 10 N/NO 13
Oggi h: 10:50 sereno Sereno 24 18 69 1023 10 N 13
Oggi h: 10:20 sereno Sereno 24 16 60 1023 10 N 9.3
Oggi h: 09:50 molto_nuvoloso Molto Nuvoloso 23 17 68 1023 10 NE 7.4
Oggi h: 09:20 molto_nuvoloso Molto Nuvoloso 23 17 68 1022 10 N 13
Oggi h: 08:50 molto_nuvoloso Molto Nuvoloso 21 17 77 1022 10 N 14.8
Oggi h: 08:20 molto_nuvoloso Molto Nuvoloso 22 16 68 1022 10 NE 13
Oggi h: 07:50 molto_nuvoloso Molto Nuvoloso 21 16 73 1022 10 N/NE 11.1
Oggi h: 07:20 molto_nuvoloso Molto Nuvoloso 21 16 73 1022 10 NE 9.3
Oggi h: 06:50 molto_nuvoloso Molto Nuvoloso 21 17 77 1022 10 N/NE 14.8
Oggi h: 06:20 molto_nuvoloso Molto Nuvoloso 21 18 82 1022 10 NE 9.3
Oggi h: 05:50 molto_nuvoloso Molto Nuvoloso 22 18 78 1022 10 NE 11.1
Oggi h: 05:20 molto_nuvoloso Molto Nuvoloso 22 19 83 1022 10 N 13
Oggi h: 04:50 molto_nuvoloso Molto Nuvoloso 23 19 78 1021 10 N 14.8
Oggi h: 04:20 molto_nuvoloso Molto Nuvoloso 23 18 73 1021 10 N/NE 9.3
Oggi h: 03:50 molto_nuvoloso Molto Nuvoloso 23 18 73 1021 10 E/NE 11.1
Oggi h: 03:20 molto_nuvoloso Molto Nuvoloso 23 18 73 1021 10 NE 11.1
Oggi h: 02:50 nuvoloso_temporali Temporale nelle Vicinanze 23 18 73 1021 10 NE 13
Oggi h: 02:20 nuvoloso_temporali Temporale nelle Vicinanze 24 18 69 1021 10 E/NE 11.1
Oggi h: 01:50 nuvoloso_temporali Temporale nelle Vicinanze 24 18 69 1021 10 E/SE 20.3
Oggi h: 01:20 nuvoloso_temporali Temporale nelle Vicinanze 25 19 69 1020 10 E/SE 20.3
Oggi h: 00:20 nuvoloso Nuvoloso 23 19 78 1020 10 N 13
Ieri h: 23:50 nuvoloso Nuvoloso 23 19 78 1020 10 N 14.8
Ieri h: 23:20 nuvoloso Nuvoloso 23 18 73 1020 10 N/NE 9.3
Ieri h: 22:50 nuvoloso Nuvoloso 23 18 73 1020 10 N 7.4
Ieri h: 22:20 nuvoloso Nuvoloso 25 18 65 1019 10 N 5.5
Ieri h: 21:50 nuvoloso Nuvoloso 26 19 65 1019 10 N 1.8
Ieri h: 21:20 poco_nuvoloso Poco Nuvoloso 26 18 61 1019 10 N 1.8
Ieri h: 20:50 nuvoloso Nuvoloso 28 17 51 1018 10 O 7.4